When you browse on this site, cookies collect data to enhance your experience and personalize the content and advertising you see.
Visit our Privacy Policy to learn more. By continuing to use the site, you agree to this use of cookies and data.
  • En España
  • Lista de países
  • Para 7 días
  • Temperatura del agua
  • El tiempo en el mapa
  • Informadores
  • user-avatar
    Iniciar sesión

    Tiempo cada hora Mingachevir

    Hoy, 10 Abril, Viernes

    Tiempo Temperatura Precipitaciones Viento Presión Humedad
    00:00 +8°C° 0 mm 1 mps 753 mmHg 74%
    01:00 +7°C° 0 mm 1 mps 753 mmHg 77%
    02:00 +6°C° 0 mm 0 mps 752 mmHg 81%
    03:00 +5°C° 0 mm 0 mps 752 mmHg 85%
    04:00 +6°C° 0 mm 0 mps 752 mmHg 84%
    05:00 +6°C° 0 mm 0 mps 752 mmHg 83%
    06:00 +6°C° 0 mm 0 mps 752 mmHg 83%
    07:00 +8°C° 0 mm 1 mps 752 mmHg 74%
    08:00 +10°C° 0 mm 1 mps 751 mmHg 66%
    09:00 +12°C° 0 mm 2 mps 751 mmHg 57%
    10:00 +13°C° 0 mm 1 mps 750 mmHg 53%
    11:00 +14°C° 0 mm 1 mps 750 mmHg 49%
    12:00 +15°C° 0 mm 1 mps 750 mmHg 45%
    13:00 +15°C° 0 mm 2 mps 750 mmHg 46%
    14:00 +14°C° 0 mm 4 mps 749 mmHg 47%
    15:00 +15°C° 0 mm 5 mps 749 mmHg 47%
    16:00 +14°C° 0 mm 5 mps 749 mmHg 52%
    17:00 +13°C° 0 mm 4 mps 749 mmHg 56%
    18:00 +12°C° 0 mm 4 mps 750 mmHg 61%
    19:00 +12°C° 0 mm 3 mps 750 mmHg 60%
    20:00 +11°C° 0 mm 3 mps 750 mmHg 60%
    21:00 +12°C° 0 mm 2 mps 750 mmHg 59%
    22:00 +12°C° 0 mm 2 mps 750 mmHg 61%
    23:00 +12°C° 0 mm 2 mps 750 mmHg 63%

    Mañana, 11 Abril, Sábado

    Tiempo Temperatura Precipitaciones Viento Presión Humedad
    00:00 +12°C° 0 mm 2 mps 750 mmHg 65%
    01:00 +11°C° 0 mm 1 mps 750 mmHg 67%
    02:00 +11°C° 0 mm 1 mps 750 mmHg 69%
    03:00 +11°C° 0 mm 1 mps 750 mmHg 71%
    04:00 +11°C° 0 mm 1 mps 750 mmHg 71%
    05:00 +11°C° 0 mm 1 mps 750 mmHg 70%
    06:00 +11°C° 0 mm 1 mps 750 mmHg 70%
    07:00 +11°C° 0.1 mm 1 mps 750 mmHg 71%
    08:00 +10°C° 0.1 mm 2 mps 750 mmHg 71%
    09:00 +11°C° 0.1 mm 3 mps 749 mmHg 71%
    10:00 +12°C° 0 mm 3 mps 749 mmHg 67%
    11:00 +13°C° 0 mm 2 mps 749 mmHg 63%
    12:00 +14°C° 0 mm 2 mps 749 mmHg 58%
    13:00 +15°C° 0 mm 2 mps 749 mmHg 54%
    14:00 +16°C° 0 mm 2 mps 749 mmHg 49%
    15:00 +17°C° 0 mm 2 mps 748 mmHg 45%
    16:00 +17°C° 0 mm 2 mps 749 mmHg 47%
    17:00 +16°C° 0 mm 2 mps 749 mmHg 50%
    18:00 +16°C° 0 mm 2 mps 749 mmHg 52%
    19:00 +14°C° 0 mm 3 mps 750 mmHg 53%
    20:00 +13°C° 0 mm 4 mps 750 mmHg 54%
    21:00 +12°C° 0 mm 5 mps 751 mmHg 54%
    22:00 +12°C° 0 mm 5 mps 751 mmHg 55%
    23:00 +10°C° 0 mm 6 mps 751 mmHg 55%

    Pasado mañana, 12 Abril, Domingo

    Tiempo Temperatura Precipitaciones Viento Presión Humedad
    00:00 +10°C° 0 mm 6 mps 752 mmHg 55%
    01:00 +10°C° 0 mm 6 mps 752 mmHg 56%
    02:00 +10°C° 0 mm 6 mps 752 mmHg 57%
    03:00 +9°C° 0 mm 6 mps 752 mmHg 57%
    04:00 +9°C° 0 mm 5 mps 752 mmHg 57%
    05:00 +10°C° 0 mm 5 mps 753 mmHg 57%
    06:00 +10°C° 0 mm 5 mps 753 mmHg 57%
    07:00 +12°C° 0 mm 5 mps 753 mmHg 55%
    08:00 +13°C° 0 mm 5 mps 753 mmHg 52%
    09:00 +14°C° 0 mm 5 mps 753 mmHg 50%
    10:00 +15°C° 0 mm 5 mps 753 mmHg 46%
    11:00 +16°C° 0 mm 5 mps 753 mmHg 43%
    12:00 +17°C° 0 mm 5 mps 753 mmHg 39%
    13:00 +19°C° 0 mm 5 mps 753 mmHg 37%
    14:00 +19°C° 0 mm 6 mps 753 mmHg 35%
    15:00 +20°C° 0 mm 6 mps 752 mmHg 33%
    16:00 +17°C° 0 mm 6 mps 753 mmHg 37%
    17:00 +16°C° 0 mm 5 mps 753 mmHg 42%
    18:00 +15°C° 0 mm 5 mps 754 mmHg 46%
    19:00 +14°C° 0.1 mm 5 mps 755 mmHg 50%
    20:00 +13°C° 0.1 mm 5 mps 755 mmHg 54%
    21:00 +12°C° 0.1 mm 5 mps 756 mmHg 58%
    22:00 +10°C° 0.2 mm 5 mps 757 mmHg 64%
    23:00 +10°C° 0.2 mm 4 mps 757 mmHg 70%

    13 Abril, Lunes

    Tiempo Temperatura Precipitaciones Viento Presión Humedad
    00:00 +8°C° 0.2 mm 4 mps 758 mmHg 76%
    01:00 +8°C° 0.1 mm 4 mps 758 mmHg 77%
    02:00 +8°C° 0.1 mm 4 mps 758 mmHg 78%
    03:00 +7°C° 0.1 mm 4 mps 758 mmHg 79%
    04:00 +8°C° 0 mm 3 mps 758 mmHg 78%
    05:00 +8°C° 0 mm 3 mps 759 mmHg 77%
    06:00 +8°C° 0 mm 2 mps 759 mmHg 77%
    07:00 +9°C° 0 mm 3 mps 759 mmHg 72%
    08:00 +10°C° 0 mm 4 mps 760 mmHg 68%
    09:00 +10°C° 0 mm 5 mps 760 mmHg 64%
    10:00 +10°C° 0 mm 5 mps 759 mmHg 64%
    11:00 +10°C° 0 mm 5 mps 759 mmHg 63%
    12:00 +11°C° 0 mm 6 mps 759 mmHg 63%
    13:00 +11°C° 0 mm 6 mps 759 mmHg 63%
    14:00 +12°C° 0 mm 5 mps 758 mmHg 62%
    15:00 +13°C° 0 mm 5 mps 758 mmHg 62%
    16:00 +12°C° 0 mm 5 mps 758 mmHg 63%
    17:00 +12°C° 0 mm 4 mps 758 mmHg 65%
    18:00 +11°C° 0 mm 4 mps 758 mmHg 66%
    19:00 +11°C° 0 mm 4 mps 758 mmHg 70%
    20:00 +10°C° 0 mm 4 mps 759 mmHg 74%
    21:00 +8°C° 0 mm 4 mps 759 mmHg 77%
    22:00 +8°C° 0 mm 4 mps 759 mmHg 79%
    23:00 +9°C° 0 mm 3 mps 759 mmHg 81%

    14 Abril, Martes

    Tiempo Temperatura Precipitaciones Viento Presión Humedad
    00:00 +8°C° 0 mm 3 mps 759 mmHg 83%
    01:00 +8°C° 0 mm 2 mps 759 mmHg 86%
    02:00 +7°C° 0 mm 2 mps 758 mmHg 88%
    03:00 +7°C° 0 mm 1 mps 758 mmHg 91%
    04:00 +7°C° 0 mm 1 mps 758 mmHg 91%
    05:00 +7°C° 0 mm 1 mps 758 mmHg 90%
    06:00 +7°C° 0 mm 1 mps 758 mmHg 90%
    07:00 +9°C° 0 mm 1 mps 758 mmHg 84%
    08:00 +9°C° 0 mm 2 mps 757 mmHg 78%
    09:00 +10°C° 0 mm 2 mps 757 mmHg 72%
    10:00 +12°C° 0 mm 2 mps 756 mmHg 67%
    11:00 +14°C° 0 mm 2 mps 756 mmHg 61%
    12:00 +15°C° 0 mm 2 mps 755 mmHg 56%
    13:00 +15°C° 0 mm 1 mps 755 mmHg 53%
    14:00 +16°C° 0 mm 1 mps 754 mmHg 51%
    15:00 +16°C° 0 mm 1 mps 754 mmHg 49%
    16:00 +16°C° 0 mm 1 mps 754 mmHg 52%
    17:00 +16°C° 0 mm 2 mps 754 mmHg 55%
    18:00 +15°C° 0 mm 2 mps 754 mmHg 57%
    19:00 +14°C° 0 mm 1 mps 754 mmHg 61%
    20:00 +13°C° 0 mm 1 mps 754 mmHg 64%
    21:00 +12°C° 0 mm 1 mps 755 mmHg 67%
    22:00 +12°C° 0 mm 1 mps 754 mmHg 70%
    23:00 +11°C° 0 mm 1 mps 754 mmHg 72%

    15 Abril, Miércoles

    Tiempo Temperatura Precipitaciones Viento Presión Humedad
    00:00 +11°C° 0 mm 1 mps 754 mmHg 75%
    01:00 +10°C° 0 mm 1 mps 753 mmHg 79%
    02:00 +10°C° 0 mm 1 mps 753 mmHg 83%
    03:00 +8°C° 0 mm 0 mps 752 mmHg 87%
    04:00 +9°C° 0 mm 0 mps 752 mmHg 85%
    05:00 +9°C° 0 mm 0 mps 752 mmHg 84%
    06:00 +9°C° 0 mm 0 mps 752 mmHg 83%
    07:00 +12°C° 0 mm 1 mps 751 mmHg 74%
    08:00 +14°C° 0 mm 1 mps 751 mmHg 66%
    09:00 +15°C° 0 mm 2 mps 750 mmHg 58%
    10:00 +17°C° 0 mm 2 mps 750 mmHg 53%
    11:00 +18°C° 0 mm 2 mps 750 mmHg 48%
    12:00 +20°C° 0 mm 2 mps 749 mmHg 42%
    13:00 +21°C° 0 mm 2 mps 749 mmHg 40%
    14:00 +22°C° 0 mm 1 mps 748 mmHg 38%
    15:00 +23°C° 0 mm 1 mps 748 mmHg 36%
    16:00 +23°C° 0 mm 1 mps 748 mmHg 39%
    17:00 +22°C° 0 mm 1 mps 748 mmHg 43%
    18:00 +21°C° 0 mm 1 mps 748 mmHg 46%
    19:00 +19°C° 0 mm 2 mps 748 mmHg 48%
    20:00 +19°C° 0 mm 2 mps 749 mmHg 49%
    21:00 +18°C° 0 mm 3 mps 749 mmHg 50%
    22:00 +18°C° 0 mm 4 mps 749 mmHg 51%
    23:00 +17°C° 0 mm 4 mps 749 mmHg 51%
    Mostrar más